Starlink 11653

operational
NORAD ID: 63267 Int'l Des: 2025-053 Owner: SPXS Country: US Constellation: starlink
LEOCIRCULAR

关于 Starlink 11653

正在加载描述...

实时位置

正在加载3D地球...

即将过境

高度历史

Altitude vs Time

uPlot chart will show altitude changes over time

两行轨道根数

1 63267U 25053C 25259.89403811 .00122400 00000-0 94479-3 0 9991
2 63267 43.0035 80.0167 0002064 267.3235 92.7396 15.70804083 30334
Epoch: Sep 16, 2025 • Age: 34 hours

当前状态

高度 356.7 km
速度 7.70 km/s
星下点 28.04°N, 0.53°E
发射日期 Mar 15, 2025
运行时间 0.5 years
类型 internet

技术详情

分类 Payload
质量 960.00 kg
干质量 910.00 kg
总质量 960.00 kg
长度 0.30 m
直径 4.10 m
跨度 29.00 m
形状 Box + pan
制造商 SPXS
平台类型 Starlink V2MD
阶段状态 In Orbit
所有者/国家 SPXS/US

大型星座

Loading constellations...